[[{"header":{"parameterUnit":"m.s-1","parameterCategory":2,"la1":30.2991,"la2":30.254,"lo1":-89.0895,"lo2":-89.0444,"dy":0.0017,"dx":0.0017,"nx":28,"ny":28,"refTime":"2024-07-14T03:00:00:Z","depth":"0","parameterNumber":2,"parameterNumberName":"U-component_of_CURRENTS"},"data":[0,0,0,0,0,0,0,0,0,0,0,0,0,0,0,0,0,0,0,0,0,0,0,0,0,0,0,0,0,0,0,0,0,0,0,0,0,0,0,0,0,0,0,0,0,0,0,0,0,0,0,0,0,0,0,0,0,0,0.227,0.227,0,0.233,0.2331,0.2331,0.2356,0.2356,0.2356,0.2356,0.2483,0.2486,0.249,0,0,0,0,0,0,0,0,0,0,0,0,0,0.2171,0.2173,0.2269,0.227,0.2271,0.233,0.2331,0.2331,0.2356,0.2356,0.2356,0.2356,0.2482,0.2486,0.249,0,0,0,0,0,0,0,0,0,0,0,0,0,0.222,0.2173,0.2269,0.2291,0.2294,0.233,0.2331,0.2332,0.2356,0.2356,0.2356,0.2356,0.248,0.2485,0.2491,0.2523,0,0,0.2506,0.2508,0,0,0,0,0,0,0,0,0.2217,0.2223,0.2287,0.229,0.2293,0.2336,0.2343,0.2399,0.2356,0.2331,0.2356,0.2356,0.2441,0.2449,0.2458,0.2529,0.2535,0.2507,0.251,0.2512,0.2513,0,0,0,0,0,0,0,0.2214,0.2221,0.2292,0.2288,0.2292,0.2297,0.2304,0.2353,0.2386,0.2333,0.2335,0.2344,0.2443,0.2453,0.2462,0.2536,0.2507,0.2511,0.2514,0.2516,0.2648,0.2649,0,0,0,0,0,0,0.2209,0.2218,0.229,0.2294,0.2255,0.2299,0.2306,0.2321,0.2384,0.2393,0.2344,0.2345,0.2444,0.2456,0.2466,0.2514,0.2512,0.2517,0.252,0.2648,0.2648,0.2649,0,0,0,0,0,0,0.2207,0.2215,0.2288,0.2258,0.2267,0.2301,0.2317,0.2323,0.2333,0.2392,0.2402,0.2349,0.2445,0.2459,0.2509,0.2519,0.2519,0.2524,0.2647,0.2648,0.2649,0.2607,0,0,0,0,0,0,0.2204,0.2214,0.2222,0.2258,0.2269,0.2311,0.2318,0.2324,0.2339,0.2341,0.24,0.2411,0.2446,0.2501,0.2514,0.2526,0.2528,0.2647,0.2648,0.2649,0.2608,0.2606,0.2605,0,0,0,0,0,0.22,0.2218,0.2222,0.2231,0.228,0.2311,0.2317,0.234,0.234,0.2348,0.2384,0.241,0.2516,0.2506,0.2521,0.2535,0.2646,0.2647,0.2648,0.2608,0.2606,0.2605,0,0,0,0,0,0,0.219,0.2224,0.2229,0.2259,0.2281,0.2316,0.2327,0.2338,0.237,0.2372,0.2419,0.2434,0.2485,0.2514,0.2502,0.2575,0.2584,0.2588,0.2549,0.2548,0.2546,0.2532,0.2532,0,0,0,0,0,0.2188,0.2204,0.2237,0.2258,0.2268,0.2293,0.2308,0.2321,0.2355,0.2368,0.2406,0.2451,0.2501,0.2526,0.2574,0.2614,0.2641,0.2631,0.263,0.2628,0.2627,0.2678,0.2681,0.2652,0.2652,0.2652,0,0,0.2189,0.221,0.2219,0.2255,0.2272,0.2285,0.2302,0.2323,0.2332,0.238,0.2406,0.2453,0.2512,0.2556,0.2581,0.2581,0.2649,0.2629,0.2627,0.2627,0.2679,0.2682,0.2685,0.2653,0.2653,0.2653,0,0,0.2191,0.2216,0.2222,0.2239,0.2264,0.2282,0.2286,0.2317,0.2329,0.2362,0.2401,0.2447,0.2514,0.2555,0.2586,0.2606,0.2644,0.2623,0.2601,0.265,0.2653,0.2655,0.2681,0.2686,0.2616,0.2616,0.2616,0,0.2188,0.2201,0.223,0.2238,0.2245,0.2277,0.2278,0.2302,0.2344,0.2356,0.2366,0.2465,0.2512,0.2571,0.2576,0.2602,0.2629,0.2601,0.2647,0.265,0.2654,0.268,0.2686,0.2614,0.2614,0.2615,0.2615,0,0.219,0.2197,0.2203,0.2218,0.2234,0.2243,0.2274,0.2291,0.2307,0.2332,0.2386,0.2449,0.2506,0.253,0.2561,0.2611,0.2621,0.2642,0.2647,0.2654,0.2681,0.2688,0.2611,0.2612,0.2613,0.2613,0,0,0.2182,0.2198,0.2197,0.219,0.2219,0.2231,0.225,0.2275,0.2286,0.2332,0.2354,0.2436,0.2468,0.2505,0.2554,0.2594,0.2638,0.2622,0.2626,0.2639,0.2733,0.2712,0.2718,0.2669,0.267,0.2671,0.2737,0,0.2165,0.2162,0.2179,0.2172,0.2169,0.2199,0.2213,0.2244,0.2276,0.231,0.2375,0.2425,0.246,0.2492,0.2538,0.2628,0.2658,0.2617,0.2733,0.2736,0.2709,0.2726,0.2678,0.2731,0.2744,0.2746,0.2747,0,0.2153,0.2148,0.2136,0.2134,0.2136,0.2144,0.2166,0.2185,0.2245,0.2271,0.2329,0.2386,0.2467,0.2488,0.2622,0.2596,0.2655,0.2711,0.2715,0.2716,0.2728,0.2731,0.2744,0.2634,0.2758,0.2757,0.2757,0,0.212,0.2115,0.2098,0.21,0.2113,0.2113,0.2126,0.2172,0.2193,0.2255,0.2282,0.2377,0.2435,0.2529,0.2643,0.264,0.2778,0.2791,0.2818,0.2817,0.2809,0.2804,0.2723,0.2865,0.2865,0.2865,0.2865,0,0.2094,0.2079,0.208,0.2073,0.2063,0.2079,0.2088,0.2116,0.2162,0.2193,0.2264,0.2313,0.245,0.2546,0.2639,0.2753,0.2778,0.2817,0.2838,0.2791,0.2784,0.2715,0.2674,0.2867,0.2867,0.2866,0.2866,0,0.207,0.2066,0.2052,0.205,0.205,0.2048,0.2071,0.2085,0.2121,0.2166,0.2188,0.2287,0.2407,0.2531,0.2689,0.2746,0.2774,0.2882,0.2803,0.2813,0.2725,0.2685,0.2549,0.2471,0.2923,0.2923,0.2923,0,0.2057,0.2046,0.2043,0.2041,0.2041,0.204,0.2048,0.2072,0.209,0.2153,0.2177,0.2286,0.2366,0.257,0.2709,0.2853,0.2753,0.286,0.2844,0.2706,0.2679,0.2539,0.2473,0.2815,0.2814,0.2814,0.2813,0,0.2035,0.204,0.2035,0.2032,0.2032,0.2028,0.2033,0.2036,0.2067,0.2095,0.2138,0.2199,0.2392,0.2515,0.2692,0.2787,0.2698,0.2847,0.2739,0.261,0.2421,0.2361,0.2764,0.2806,0.2807,0.2808,0.2808,0.2808,0.2026,0.2026,0.2025,0.202,0.2019,0.2,0.1972,0.1985,0.1988,0.1995,0.2086,0.2144,0.2321,0.2573,0.2656,0.2703,0.2653,0.2655,0.2626,0.2501,0.2384,0.2753,0.2796,0.2796,0.2797,0.2797,0.2798,0,0.1999,0.2005,0.201,0.1987,0.1964,0.1973,0.1949,0.1903,0.1876,0.1931,0.196,0.2093,0.2229,0.238,0.2498,0.2462,0.2399,0.2406,0.2202,0.2158,0.2534,0.2488,0.2423,0.2424,0.2424,0.2424,0.2424,0.2424,0.1987,0.1978,0.198,0.1929,0.191,0.1834,0.1801,0.175,0.1755,0.1741,0.1782,0.1863,0.1985,0.2128,0.2148,0.217,0.1994,0.1958,0.1894,0.2172,0.2192,0.2211,0.2154,0.2021,0.2021,0.1445,0.144,0.1437]},{"header":{"parameterUnit":"m.s-1","parameterCategory":2,"la1":30.2991,"la2":30.254,"lo1":-89.0895,"lo2":-89.0444,"dy":0.0017,"dx":0.0017,"nx":28,"ny":28,"refTime":"2024-07-14T03:00:00:Z","depth":"0","parameterNumber":3,"parameterNumberName":"V-component_of_CURRENTS"},"data":[0,0,0,0,0,0,0,0,0,0,0,0,0,0,0,0,0,0,0,0,0,0,0,0,0,0,0,0,0,0,0,0,0,0,0,0,0,0,0,0,0,0,0,0,0,0,0,0,0,0,0,0,0,0,0,0,0,0,0.1155,0.1155,0,0.1162,0.1162,0.1162,0.1155,0.1155,0.1155,0.1155,0.11,0.1099,0.1098,0,0,0,0,0,0,0,0,0,0,0,0,0,0.1105,0.1106,0.1155,0.1155,0.1155,0.1162,0.1162,0.1162,0.1155,0.1155,0.1155,0.1155,0.1101,0.1099,0.1098,0,0,0,0,0,0,0,0,0,0,0,0,0,0.112,0.1107,0.1155,0.1154,0.1154,0.1162,0.1162,0.1162,0.1155,0.1155,0.1155,0.1155,0.1101,0.1099,0.1097,0.109,0,0,0.1091,0.109,0,0,0,0,0,0,0,0,0.1119,0.1122,0.1154,0.1154,0.1154,0.1159,0.1125,0.1135,0.1155,0.1154,0.1155,0.1155,0.1115,0.1112,0.1113,0.1087,0.1085,0.1091,0.109,0.1089,0.1089,0,0,0,0,0,0,0,0.1118,0.1121,0.1157,0.1154,0.1154,0.1143,0.1145,0.1127,0.1133,0.1154,0.1154,0.1156,0.1114,0.1115,0.1111,0.1084,0.1091,0.1089,0.1088,0.1087,0.1034,0.1033,0,0,0,0,0,0,0.1122,0.1121,0.1156,0.1157,0.1137,0.1144,0.1146,0.1156,0.1135,0.1132,0.1157,0.1156,0.1118,0.1114,0.1109,0.109,0.1089,0.1087,0.1086,0.1034,0.1033,0.1033,0,0,0,0,0,0,0.1121,0.1125,0.1156,0.1139,0.1142,0.1145,0.1157,0.1157,0.1157,0.1138,0.1134,0.1157,0.1118,0.1112,0.1099,0.1088,0.1086,0.1085,0.1034,0.1034,0.1033,0.1058,0,0,0,0,0,0,0.112,0.1125,0.1132,0.114,0.1144,0.1165,0.1157,0.1157,0.1159,0.1159,0.1137,0.1132,0.1117,0.1102,0.1097,0.1086,0.1083,0.1034,0.1034,0.1033,0.1057,0.1058,0.1059,0,0,0,0,0,0.1118,0.113,0.1133,0.1137,0.1154,0.1166,0.1167,0.1166,0.116,0.1164,0.1149,0.1132,0.1094,0.11,0.1094,0.1082,0.1035,0.1034,0.1033,0.1057,0.1058,0.1059,0,0,0,0,0,0,0.1103,0.1131,0.1134,0.1151,0.116,0.1165,0.117,0.1167,0.116,0.1157,0.1135,0.1129,0.1112,0.1095,0.1102,0.1065,0.1059,0.1057,0.1078,0.1079,0.108,0.1098,0.1081,0,0,0,0,0,0.1106,0.1127,0.1143,0.1154,0.1162,0.1165,0.1169,0.117,0.1166,0.1164,0.1148,0.1126,0.1105,0.1092,0.1075,0.1057,0.1043,0.1043,0.1044,0.1045,0.1055,0.1028,0.1028,0.1031,0.1031,0.1031,0,0,0.1098,0.112,0.1127,0.1153,0.116,0.1171,0.1167,0.1177,0.1176,0.1157,0.1149,0.1131,0.1102,0.1085,0.1074,0.1069,0.1035,0.1044,0.1046,0.1055,0.1028,0.1028,0.1027,0.1031,0.1031,0.1031,0,0,0.1097,0.1119,0.1135,0.115,0.117,0.1175,0.1179,0.1187,0.1183,0.1178,0.1158,0.1143,0.1112,0.1093,0.1076,0.1071,0.1044,0.1055,0.107,0.1044,0.1044,0.1044,0.1022,0.1019,0.1052,0.1052,0.1052,0,0.1083,0.1111,0.1137,0.1158,0.1167,0.1178,0.1187,0.1188,0.1186,0.1181,0.1178,0.1139,0.1117,0.109,0.1089,0.1074,0.1056,0.1069,0.1046,0.1046,0.1045,0.1023,0.102,0.1053,0.1053,0.1053,0.1053,0,0.1094,0.1116,0.1128,0.116,0.1174,0.1185,0.1197,0.12,0.1197,0.1194,0.1177,0.1155,0.1133,0.1116,0.1102,0.1079,0.1067,0.1054,0.1047,0.1046,0.1022,0.1019,0.1055,0.1054,0.1054,0.1054,0,0,0.1056,0.1121,0.1123,0.1144,0.1177,0.119,0.1196,0.1202,0.1205,0.1198,0.1195,0.1162,0.1158,0.114,0.1116,0.1095,0.1072,0.1075,0.1073,0.1059,0.1015,0.1007,0.1003,0.1052,0.1051,0.1051,0.0999,0,0.1049,0.1088,0.1121,0.1148,0.1168,0.119,0.1197,0.1206,0.1208,0.121,0.119,0.1181,0.1162,0.1154,0.1131,0.1094,0.1064,0.1087,0.1012,0.101,0.1009,0.0999,0.102,0.0975,0.0995,0.0995,0.0994,0,0.1041,0.1075,0.11,0.1154,0.1164,0.1178,0.12,0.121,0.1218,0.1219,0.1215,0.1206,0.1186,0.1167,0.1107,0.1123,0.1071,0.1038,0.1034,0.102,0.0997,0.0978,0.0968,0.0935,0.0989,0.0989,0.0989,0,0.1001,0.1057,0.1078,0.1095,0.1152,0.1163,0.1188,0.1207,0.1221,0.123,0.124,0.1218,0.121,0.1157,0.1108,0.11,0.1042,0.1017,0.0957,0.0956,0.0956,0.0956,0.0913,0.0958,0.0958,0.0958,0.0958,0,0.0978,0.0996,0.1065,0.1077,0.1108,0.1152,0.1178,0.1196,0.1225,0.1243,0.1246,0.1251,0.1205,0.1175,0.1117,0.1041,0.1045,0.0963,0.0942,0.0964,0.0965,0.0924,0.0862,0.0956,0.0956,0.0957,0.0957,0,0.0927,0.0968,0.1005,0.1069,0.1092,0.1114,0.1185,0.1208,0.1232,0.1257,0.1263,0.127,0.1238,0.1192,0.1111,0.105,0.0956,0.0944,0.0981,0.0965,0.0872,0.081,0.0674,0.0758,0.0862,0.0862,0.0861,0,0.0906,0.0919,0.0994,0.1025,0.1056,0.1106,0.1145,0.1199,0.1226,0.1266,0.1274,0.1266,0.1262,0.1168,0.108,0.0985,0.0937,0.0915,0.0897,0.0873,0.0789,0.0724,0.0805,0.0903,0.0903,0.0903,0.0903,0,0.0873,0.0896,0.0931,0.0995,0.1044,0.1101,0.1158,0.1181,0.1239,0.1261,0.1278,0.1284,0.1227,0.1164,0.106,0.0988,0.0902,0.0908,0.0873,0.0808,0.0744,0.0816,0.0933,0.0903,0.0903,0.0903,0.0903,0.0903,0.0847,0.0866,0.0917,0.0973,0.1029,0.1083,0.111,0.117,0.121,0.1254,0.1279,0.1309,0.1252,0.1125,0.1033,0.0893,0.0871,0.0834,0.0757,0.0694,0.0782,0.0902,0.0856,0.0856,0.0856,0.0856,0.0855,0,0.0824,0.0855,0.0902,0.0966,0.1007,0.1051,0.1111,0.1133,0.1165,0.1253,0.1285,0.1321,0.1221,0.1118,0.0919,0.078,0.0784,0.0709,0.064,0.0738,0.0837,0.0852,0.0817,0.0817,0.0817,0.0818,0.0818,0.0818,0.0816,0.0847,0.0876,0.0933,0.0974,0.101,0.1033,0.107,0.1129,0.1222,0.1296,0.1377,0.133,0.0919,0.0685,0.0644,0.0614,0.0488,0.055,0.0605,0.0613,0.062,0.0625,0.0543,0.0543,0.0547,0.0546,0.0545]}],[{"header":{"parameterUnit":"m.s-1","parameterCategory":2,"la1":30.2991,"la2":30.254,"lo1":-89.0895,"lo2":-89.0444,"dy":0.0017,"dx":0.0017,"nx":28,"ny":28,"refTime":"2024-07-14T03:00:00:Z","depth":"2","parameterNumber":2,"parameterNumberName":"U-component_of_CURRENTS"},"data":[0,0,0,0,0,0,0,0,0,0,0,0,0,0,0,0,0,0,0,0,0,0,0,0,0,0,0,0,0,0,0,0,0,0,0,0,0,0,0,0,0,0,0,0,0,0,0,0,0,0,0,0,0,0,0,0,0,0,0.0339,0.0339,0,0.0356,0.0356,0.0356,0.0394,0.0395,0.0396,0.0397,0.0367,0.0366,0.0364,0,0,0,0,0,0,0,0,0,0,0,0,0,0.0331,0.033,0.0339,0.0339,0.034,0.0356,0.0356,0.0356,0.0394,0.0395,0.0396,0.0398,0.0368,0.0366,0.0364,0,0,0,0,0,0,0,0,0,0,0,0,0,0.0338,0.033,0.0339,0.0362,0.0365,0.0356,0.0356,0.0356,0.0394,0.0395,0.0397,0.0398,0.0369,0.0366,0.0364,0.0319,0,0,0.0356,0.0355,0,0,0,0,0,0,0,0,0.0337,0.0338,0.0358,0.0361,0.0363,0.0376,0.0342,0.0342,0.0394,0.0381,0.0397,0.0399,0.0366,0.0364,0.0362,0.0318,0.0317,0.0356,0.0354,0.0353,0.0352,0,0,0,0,0,0,0,0.0337,0.0337,0.0344,0.0359,0.0362,0.0369,0.0371,0.0342,0.0363,0.0382,0.0385,0.039,0.0367,0.0364,0.0361,0.0316,0.0356,0.0353,0.0352,0.0351,0.0315,0.0315,0,0,0,0,0,0,0.0337,0.0337,0.0343,0.0345,0.0356,0.0368,0.037,0.0369,0.0364,0.0366,0.0388,0.0391,0.0368,0.0364,0.036,0.0376,0.0353,0.0351,0.0349,0.0314,0.0315,0.0316,0,0,0,0,0,0,0.0337,0.0337,0.0343,0.0343,0.0345,0.0367,0.0365,0.0369,0.04,0.037,0.0371,0.042,0.0369,0.0364,0.0372,0.0372,0.035,0.0347,0.0314,0.0315,0.0315,0.0362,0,0,0,0,0,0,0.0336,0.0337,0.0348,0.0343,0.0345,0.035,0.0363,0.0368,0.0399,0.0404,0.0396,0.0393,0.037,0.0376,0.0369,0.0368,0.0345,0.0313,0.0314,0.0315,0.036,0.0365,0.0369,0,0,0,0,0,0.0336,0.0338,0.0348,0.035,0.0355,0.0351,0.0352,0.0371,0.04,0.0407,0.0419,0.0395,0.0377,0.0374,0.0366,0.0365,0.0312,0.0314,0.0315,0.0358,0.0364,0.0369,0,0,0,0,0,0,0.0342,0.0342,0.0353,0.0357,0.0362,0.0358,0.0373,0.0389,0.0405,0.0424,0.0404,0.0401,0.0406,0.0382,0.038,0.0359,0.0339,0.0339,0.0375,0.038,0.0384,0.038,0.0343,0,0,0,0,0,0.0348,0.0348,0.0351,0.0356,0.0364,0.0377,0.0386,0.0401,0.0408,0.0419,0.042,0.0415,0.0396,0.0391,0.0373,0.0361,0.0341,0.0354,0.0359,0.0363,0.0355,0.0329,0.033,0.032,0.032,0.032,0,0,0.0349,0.0352,0.0352,0.0358,0.0368,0.0374,0.0387,0.0408,0.0414,0.0409,0.0434,0.0433,0.0399,0.0391,0.0389,0.0376,0.0362,0.0364,0.0368,0.0358,0.033,0.0331,0.0332,0.0321,0.032,0.032,0,0,0.0348,0.036,0.0365,0.0372,0.0394,0.0393,0.0408,0.0428,0.0442,0.0457,0.0457,0.0461,0.0444,0.0417,0.0398,0.0412,0.0389,0.0416,0.0427,0.0403,0.0403,0.0403,0.0408,0.0407,0.0413,0.0413,0.0413,0,0.0361,0.0361,0.0366,0.0378,0.039,0.0407,0.0421,0.0422,0.0445,0.0455,0.0473,0.0464,0.0445,0.0413,0.0428,0.0418,0.0419,0.0411,0.0408,0.0407,0.0406,0.041,0.041,0.0416,0.0416,0.0415,0.0415,0,0.0359,0.0374,0.0379,0.0395,0.0404,0.0419,0.0424,0.0444,0.0472,0.0476,0.0485,0.0468,0.0468,0.0456,0.0447,0.0431,0.0442,0.042,0.0394,0.041,0.0414,0.0412,0.0419,0.0418,0.0418,0.0417,0,0,0.0361,0.0375,0.0385,0.0399,0.0422,0.0426,0.0436,0.0443,0.0459,0.0476,0.0489,0.0466,0.0491,0.0471,0.0461,0.0432,0.0441,0.0437,0.0435,0.0442,0.0421,0.0494,0.0499,0.043,0.0429,0.0429,0.0436,0,0.037,0.0388,0.0394,0.0417,0.0429,0.0445,0.0451,0.0463,0.0474,0.049,0.0472,0.0487,0.0483,0.0506,0.0478,0.0449,0.0435,0.0442,0.0404,0.0403,0.0465,0.0499,0.0381,0.0384,0.0434,0.0434,0.0434,0,0.0375,0.0386,0.0413,0.0433,0.0444,0.0466,0.0489,0.0497,0.0504,0.0521,0.0531,0.0534,0.0519,0.0512,0.0467,0.0483,0.0466,0.0431,0.043,0.0475,0.0472,0.037,0.0379,0.043,0.0431,0.0431,0.0431,0,0.0374,0.0401,0.0424,0.0434,0.0458,0.0488,0.051,0.0525,0.0537,0.0561,0.0581,0.0563,0.0577,0.0533,0.0509,0.0497,0.0452,0.0419,0.0461,0.0466,0.0344,0.0341,0.0379,0.0379,0.0379,0.0379,0.0379,0,0.0374,0.0395,0.0437,0.0452,0.0489,0.0514,0.0554,0.057,0.0597,0.0611,0.0622,0.0619,0.0585,0.0564,0.0522,0.0513,0.0474,0.0473,0.0472,0.0364,0.0363,0.0374,0.0373,0.0379,0.0379,0.0379,0.0379,0,0.0365,0.0392,0.0418,0.0466,0.0492,0.0527,0.059,0.0605,0.0647,0.0665,0.0686,0.0678,0.0675,0.0641,0.0575,0.0552,0.0511,0.0513,0.0419,0.0408,0.0536,0.0538,0.0555,0.0558,0.056,0.0562,0.0563,0,0.0361,0.0376,0.0432,0.0458,0.0493,0.055,0.0584,0.0635,0.0646,0.0684,0.0681,0.0712,0.0711,0.068,0.0649,0.0625,0.0586,0.0498,0.0447,0.0557,0.0553,0.0551,0.055,0.03,0.0299,0.0298,0.0298,0,0.0346,0.0374,0.0386,0.0446,0.0499,0.0535,0.0591,0.0602,0.0651,0.0681,0.0698,0.0712,0.0728,0.0655,0.0667,0.0614,0.0499,0.0492,0.0592,0.0306,0.0326,0.032,0.0324,0.0293,0.0293,0.0294,0.0294,0.0294,0.0334,0.0337,0.037,0.043,0.0485,0.0525,0.0566,0.0589,0.0624,0.0662,0.067,0.066,0.0549,0.0542,0.053,0.0547,0.0574,0.0451,0.0448,0.0446,0.0447,0.0473,0.0469,0.047,0.0471,0.0473,0.0474,0,0.0319,0.0337,0.0359,0.0422,0.0477,0.0545,0.0578,0.0588,0.0632,0.0603,0.0647,0.0463,0.0408,0.0375,0.0413,0.0429,0.0375,0.0378,0.0249,0.0253,0.0257,0.0246,0.0215,0.0216,0.0216,0.0216,0,0,0.0303,0.0314,0.0326,0.0415,0.05,0.0598,0.0644,0.0621,0.0578,0.0511,0.0472,0.0404,0.0321,0.0228,0.0211,0.0248,0.0256,0.0235,0.0425,0.0275,0.028,0.0268,0.0253,0,0,0,0,0]},{"header":{"parameterUnit":"m.s-1","parameterCategory":2,"la1":30.2991,"la2":30.254,"lo1":-89.0895,"lo2":-89.0444,"dy":0.0017,"dx":0.0017,"nx":28,"ny":28,"refTime":"2024-07-14T03:00:00:Z","depth":"2","parameterNumber":3,"parameterNumberName":"V-component_of_CURRENTS"},"data":[0,0,0,0,0,0,0,0,0,0,0,0,0,0,0,0,0,0,0,0,0,0,0,0,0,0,0,0,0,0,0,0,0,0,0,0,0,0,0,0,0,0,0,0,0,0,0,0,0,0,0,0,0,0,0,0,0,0,-0.0422,-0.0423,0,-0.0466,-0.0466,-0.0467,-0.048,-0.048,-0.0479,-0.0479,-0.0537,-0.0539,-0.0541,0,0,0,0,0,0,0,0,0,0,0,0,0,-0.0349,-0.035,-0.0422,-0.0423,-0.0423,-0.0466,-0.0466,-0.0467,-0.048,-0.048,-0.0479,-0.0479,-0.0537,-0.0539,-0.0541,0,0,0,0,0,0,0,0,0,0,0,0,0,-0.0386,-0.0351,-0.0422,-0.0434,-0.0435,-0.0466,-0.0466,-0.0467,-0.048,-0.048,-0.0479,-0.0479,-0.0536,-0.0538,-0.0541,-0.0568,0,0,-0.055,-0.0551,0,0,0,0,0,0,0,0,-0.0384,-0.0389,-0.0432,-0.0433,-0.0435,-0.0466,-0.0462,-0.0501,-0.048,-0.0464,-0.0479,-0.0479,-0.0514,-0.0519,-0.0529,-0.057,-0.0573,-0.055,-0.0552,-0.0553,-0.0554,0,0,0,0,0,0,0,-0.0382,-0.0387,-0.044,-0.0432,-0.0434,-0.0437,-0.0442,-0.0469,-0.0493,-0.0466,-0.0466,-0.047,-0.0515,-0.0527,-0.0531,-0.0574,-0.055,-0.0552,-0.0554,-0.0555,-0.0634,-0.0634,0,0,0,0,0,0,-0.0375,-0.0385,-0.0439,-0.0442,-0.0407,-0.0438,-0.0444,-0.0457,-0.0492,-0.0496,-0.047,-0.047,-0.0522,-0.0528,-0.0533,-0.0556,-0.0553,-0.0555,-0.0557,-0.0633,-0.0634,-0.0634,0,0,0,0,0,0,-0.0374,-0.038,-0.0437,-0.0413,-0.042,-0.044,-0.0455,-0.0458,-0.046,-0.0495,-0.05,-0.0466,-0.0522,-0.0529,-0.0558,-0.0558,-0.0557,-0.0559,-0.0633,-0.0633,-0.0634,-0.0608,0,0,0,0,0,0,-0.0372,-0.0379,-0.0383,-0.0413,-0.0421,-0.045,-0.0456,-0.046,-0.0462,-0.0463,-0.0494,-0.0499,-0.0522,-0.0554,-0.0561,-0.0562,-0.0561,-0.0632,-0.0633,-0.0634,-0.0608,-0.0608,-0.0607,0,0,0,0,0,-0.0369,-0.0373,-0.0383,-0.0389,-0.0427,-0.045,-0.0455,-0.0467,-0.0462,-0.0466,-0.049,-0.0498,-0.0564,-0.0557,-0.0565,-0.0567,-0.0632,-0.0633,-0.0634,-0.0609,-0.0608,-0.0607,0,0,0,0,0,0,-0.0341,-0.0376,-0.0387,-0.0401,-0.0422,-0.0451,-0.0453,-0.046,-0.0481,-0.0478,-0.0507,-0.0516,-0.0541,-0.0559,-0.0551,-0.0593,-0.0598,-0.06,-0.0576,-0.0575,-0.0575,-0.0551,-0.0563,0,0,0,0,0,-0.0338,-0.0351,-0.0383,-0.0394,-0.0403,-0.0426,-0.0434,-0.0443,-0.0466,-0.0473,-0.0494,-0.0521,-0.0554,-0.0567,-0.0597,-0.062,-0.0619,-0.0626,-0.0626,-0.0625,-0.0612,-0.0624,-0.0623,-0.0638,-0.0638,-0.0637,0,0,-0.0329,-0.0349,-0.0356,-0.0388,-0.0405,-0.0415,-0.043,-0.0439,-0.0445,-0.0478,-0.049,-0.0521,-0.0561,-0.059,-0.0602,-0.0602,-0.0618,-0.0626,-0.0625,-0.0613,-0.0625,-0.0623,-0.0622,-0.0638,-0.0638,-0.0638,0,0,-0.0313,-0.0337,-0.0341,-0.0356,-0.0378,-0.0399,-0.0397,-0.0423,-0.0432,-0.0455,-0.0481,-0.0508,-0.0552,-0.0581,-0.0603,-0.0616,-0.0617,-0.0626,-0.0603,-0.0614,-0.0613,-0.0611,-0.0593,-0.059,-0.0624,-0.0624,-0.0624,0,-0.03,-0.0312,-0.0343,-0.0348,-0.0353,-0.0387,-0.0385,-0.0408,-0.0436,-0.0446,-0.0453,-0.0515,-0.0547,-0.0585,-0.0591,-0.0613,-0.0609,-0.0601,-0.0612,-0.061,-0.0609,-0.0591,-0.0588,-0.0622,-0.0623,-0.0623,-0.0623,0,-0.0287,-0.0294,-0.0295,-0.0317,-0.0329,-0.0333,-0.0366,-0.038,-0.0396,-0.0417,-0.0449,-0.0495,-0.0528,-0.0548,-0.0576,-0.059,-0.0585,-0.061,-0.0608,-0.0606,-0.0587,-0.0585,-0.0621,-0.0621,-0.0622,-0.0622,0,0,-0.0266,-0.0283,-0.0282,-0.0281,-0.0309,-0.0318,-0.0336,-0.0364,-0.0369,-0.0403,-0.0412,-0.0472,-0.0489,-0.0514,-0.055,-0.0561,-0.0553,-0.0577,-0.0578,-0.0548,-0.0552,-0.048,-0.0471,-0.058,-0.058,-0.0579,-0.0536,0,-0.0245,-0.0239,-0.0256,-0.0249,-0.0249,-0.0281,-0.0293,-0.0322,-0.0352,-0.0373,-0.0421,-0.0445,-0.048,-0.0491,-0.0511,-0.0551,-0.0547,-0.056,-0.0568,-0.0567,-0.0495,-0.0466,-0.047,-0.0426,-0.0534,-0.0534,-0.0533,0,-0.0227,-0.0225,-0.0209,-0.0213,-0.0216,-0.0213,-0.0236,-0.0251,-0.0299,-0.0318,-0.0352,-0.0394,-0.0426,-0.0452,-0.049,-0.0496,-0.0512,-0.0534,-0.0534,-0.0471,-0.0491,-0.045,-0.0417,-0.0529,-0.0529,-0.053,-0.053,0,-0.0196,-0.0193,-0.0176,-0.0176,-0.0189,-0.0182,-0.0189,-0.0227,-0.0235,-0.0275,-0.0281,-0.0338,-0.0353,-0.0393,-0.0441,-0.0465,-0.0467,-0.0511,-0.0454,-0.0449,-0.0453,-0.0448,-0.0517,-0.0517,-0.0517,-0.0517,-0.0517,0,-0.0172,-0.0158,-0.0153,-0.0143,-0.012,-0.0137,-0.0123,-0.0146,-0.0167,-0.017,-0.0238,-0.0247,-0.0339,-0.0365,-0.0412,-0.0406,-0.0441,-0.0426,-0.0429,-0.0442,-0.0437,-0.0537,-0.0539,-0.0515,-0.0516,-0.0516,-0.0516,0,-0.0144,-0.0143,-0.0121,-0.0112,-0.0103,-0.0083,-0.0071,-0.0067,-0.0086,-0.0091,-0.0097,-0.0168,-0.0194,-0.0263,-0.0322,-0.0345,-0.0366,-0.0354,-0.0341,-0.0341,-0.0346,-0.0349,-0.0285,-0.0282,-0.0279,-0.0277,-0.0275,0,-0.013,-0.0114,-0.0089,-0.0069,-0.0057,-0.0029,-0.0013,-0.0024,-0.0022,-0.004,-0.0041,-0.0067,-0.0082,-0.0119,-0.0154,-0.0179,-0.0273,-0.0221,-0.0267,-0.0311,-0.0321,-0.0328,-0.0333,-0.0267,-0.0265,-0.0264,-0.0263,0,-0.0099,-0.0087,-0.007,-0.0026,0.0005,0.0034,0.0058,0.0065,0.005,0.006,0.0061,0.0057,0.0044,-0.0002,-0.0026,-0.0055,-0.0219,-0.0189,-0.0252,-0.0311,-0.0287,-0.0299,-0.0307,-0.025,-0.0252,-0.0253,-0.0253,-0.0254,-0.0071,-0.0051,-0.0022,0.002,0.0058,0.0096,0.0123,0.0142,0.0167,0.0208,0.0175,0.0181,0.0082,0.0085,0.0038,-0.0018,-0.003,-0.0131,-0.0139,-0.0148,-0.014,-0.0111,-0.0039,-0.0039,-0.0039,-0.0039,-0.0039,0,-0.0036,-0.0013,0.0025,0.0077,0.0127,0.0145,0.0172,0.0198,0.0244,0.029,0.034,0.0231,0.0206,0.0089,0.0046,0.0022,-0.0005,-0.0039,-0.0124,-0.0134,-0.0144,-0.0141,-0.0037,-0.0037,-0.0037,-0.0037,0,0,-0.0011,0.0027,0.0047,0.0134,0.0183,0.0246,0.0269,0.0303,0.0317,0.0353,0.0355,0.0426,0.0209,0.0148,0.0073,0.0007,-0.0037,0.0019,0.0023,-0.0076,-0.0085,-0.0192,-0.0195,0,0,0,0,0]}],[{"header":{"parameterUnit":"m.s-1","parameterCategory":2,"la1":30.2991,"la2":30.254,"lo1":-89.0895,"lo2":-89.0444,"dy":0.0017,"dx":0.0017,"nx":28,"ny":28,"refTime":"2024-07-14T03:00:00:Z","depth":"4","parameterNumber":2,"parameterNumberName":"U-component_of_CURRENTS"},"data":[0,0,0,0,0,0,0,0,0,0,0,0,0,0,0,0,0,0,0,0,0,0,0,0,0,0,0,0,0,0,0,0,0,0,0,0,0,0,0,0,0,0,0,0,0,0,0,0,0,0,0,0,0,0,0,0,0,0,-0.0355,-0.0356,0,-0.0375,-0.0376,-0.0376,-0.0417,-0.0418,-0.0419,-0.042,-0.0564,-0.0567,-0.057,0,0,0,0,0,0,0,0,0,0,0,0,0,-0.0321,-0.0321,-0.0355,-0.0356,-0.0356,-0.0375,-0.0376,-0.0376,-0.0417,-0.0418,-0.0419,-0.042,-0.0564,-0.0567,-0.057,0,0,0,0,0,0,0,0,0,0,0,0,0,-0.0336,-0.0321,-0.0355,-0.0381,-0.0383,-0.0375,-0.0376,-0.0376,-0.0416,-0.0418,-0.0419,-0.0421,-0.0562,-0.0567,-0.0571,-0.0567,0,0,-0.0584,-0.0586,0,0,0,0,0,0,0,0,-0.0335,-0.0337,-0.0377,-0.0379,-0.0382,-0.0397,-0.0416,-0.0447,-0.0416,-0.0401,-0.042,-0.0422,-0.052,-0.0528,-0.0524,-0.0574,-0.058,-0.0585,-0.0587,-0.0589,-0.059,0,0,0,0,0,0,0,-0.0334,-0.0336,-0.0361,-0.0377,-0.038,-0.038,-0.0384,-0.0421,-0.0453,-0.0403,-0.0406,-0.0412,-0.0523,-0.0519,-0.0528,-0.0582,-0.0584,-0.0588,-0.0591,-0.0593,-0.0762,-0.0764,0,0,0,0,0,0,-0.0336,-0.0335,-0.0361,-0.0362,-0.0364,-0.038,-0.0384,-0.0389,-0.045,-0.046,-0.041,-0.0414,-0.0511,-0.0523,-0.0533,-0.0642,-0.0589,-0.0593,-0.0596,-0.076,-0.0763,-0.0765,0,0,0,0,0,0,-0.0335,-0.0338,-0.036,-0.0351,-0.0354,-0.0379,-0.0384,-0.0389,-0.0423,-0.0454,-0.0467,-0.0445,-0.0513,-0.0527,-0.0609,-0.0644,-0.0595,-0.0599,-0.0758,-0.0761,-0.0764,-0.079,0,0,0,0,0,0,-0.0334,-0.0337,-0.036,-0.0351,-0.0355,-0.0369,-0.0383,-0.0388,-0.0423,-0.0428,-0.0488,-0.05,-0.0515,-0.0602,-0.0613,-0.0649,-0.0602,-0.0756,-0.0759,-0.0763,-0.0786,-0.0793,-0.0799,0,0,0,0,0,-0.0332,-0.0344,-0.0361,-0.0366,-0.0379,-0.037,-0.0372,-0.0393,-0.0423,-0.0432,-0.0493,-0.05,-0.0632,-0.0607,-0.0619,-0.0658,-0.0754,-0.0758,-0.0762,-0.0784,-0.0792,-0.0798,0,0,0,0,0,0,-0.0337,-0.0349,-0.0368,-0.0384,-0.0388,-0.0378,-0.0395,-0.0413,-0.0462,-0.0493,-0.0525,-0.0542,-0.0627,-0.0641,-0.0612,-0.0718,-0.0694,-0.0701,-0.0706,-0.0714,-0.072,-0.069,-0.0606,0,0,0,0,0,-0.0349,-0.0365,-0.037,-0.0384,-0.0392,-0.0404,-0.0414,-0.043,-0.0462,-0.0486,-0.0536,-0.0595,-0.0645,-0.068,-0.0725,-0.0782,-0.0753,-0.0815,-0.0821,-0.0826,-0.0812,-0.08,-0.0802,-0.0779,-0.0779,-0.0779,0,0,-0.0358,-0.0364,-0.0378,-0.0388,-0.0397,-0.0407,-0.0414,-0.0437,-0.0466,-0.0497,-0.0579,-0.0626,-0.0668,-0.0734,-0.0773,-0.0755,-0.0819,-0.0832,-0.0835,-0.0818,-0.0805,-0.0806,-0.0808,-0.0782,-0.0781,-0.0781,0,0,-0.036,-0.0387,-0.0401,-0.0407,-0.0431,-0.0433,-0.0449,-0.0475,-0.0512,-0.0583,-0.0619,-0.0685,-0.0769,-0.0793,-0.0817,-0.0884,-0.0857,-0.0914,-0.0917,-0.0906,-0.0907,-0.0907,-0.0866,-0.0863,-0.0911,-0.0911,-0.0911,0,-0.0373,-0.039,-0.0402,-0.0412,-0.0428,-0.045,-0.0469,-0.0495,-0.0554,-0.0597,-0.0623,-0.0746,-0.0789,-0.0843,-0.087,-0.0896,-0.0873,-0.0882,-0.091,-0.091,-0.0909,-0.0868,-0.0863,-0.0913,-0.0912,-0.0912,-0.0912,0,-0.0377,-0.0405,-0.0409,-0.0435,-0.0452,-0.0468,-0.0503,-0.0553,-0.0615,-0.0649,-0.0746,-0.0794,-0.0855,-0.0889,-0.0903,-0.0933,-0.0911,-0.092,-0.088,-0.0912,-0.0868,-0.0862,-0.0915,-0.0914,-0.0914,-0.0913,0,0,-0.0369,-0.0407,-0.0414,-0.044,-0.0473,-0.0483,-0.0542,-0.0593,-0.0646,-0.0718,-0.0775,-0.0862,-0.0887,-0.0913,-0.0937,-0.0933,-0.0919,-0.0926,-0.0925,-0.0866,-0.087,-0.0775,-0.076,-0.093,-0.093,-0.093,-0.0835,0,-0.0373,-0.0396,-0.0421,-0.0462,-0.048,-0.0526,-0.0579,-0.0639,-0.0697,-0.0759,-0.0812,-0.0876,-0.0894,-0.0927,-0.0926,-0.0929,-0.0908,-0.0941,-0.0864,-0.0861,-0.0757,-0.0752,-0.0928,-0.0831,-0.083,-0.0829,-0.0828,0,-0.0373,-0.039,-0.0429,-0.0493,-0.0511,-0.0563,-0.065,-0.0696,-0.0775,-0.0818,-0.0865,-0.0889,-0.0908,-0.0915,-0.0893,-0.0914,-0.0888,-0.0876,-0.0873,-0.0766,-0.0756,-0.0797,-0.0818,-0.0819,-0.082,-0.082,-0.0821,0,-0.035,-0.04,-0.0437,-0.0454,-0.0526,-0.0599,-0.0664,-0.0749,-0.0788,-0.0851,-0.0865,-0.0893,-0.0901,-0.0881,-0.0853,-0.0873,-0.0806,-0.0829,-0.0709,-0.0701,-0.0802,-0.0803,-0.079,-0.079,-0.079,-0.0791,-0.0791,0,-0.0337,-0.0367,-0.0454,-0.0473,-0.0549,-0.0627,-0.0727,-0.0774,-0.0848,-0.0867,-0.09,-0.0871,-0.0892,-0.0854,-0.0834,-0.0738,-0.0783,-0.0687,-0.0667,-0.0817,-0.082,-0.0797,-0.0799,-0.0787,-0.0788,-0.0789,-0.0789,0,-0.0308,-0.035,-0.039,-0.0495,-0.054,-0.0612,-0.0748,-0.0789,-0.087,-0.088,-0.0886,-0.0856,-0.077,-0.0761,-0.071,-0.0693,-0.0631,-0.0586,-0.0716,-0.0709,-0.0535,-0.054,-0.0431,-0.0427,-0.0423,-0.042,-0.0418,0,-0.0296,-0.0315,-0.0394,-0.0418,-0.0486,-0.0608,-0.0666,-0.0784,-0.08,-0.0837,-0.0797,-0.0741,-0.0702,-0.0535,-0.0547,-0.0474,-0.0474,-0.0466,-0.0523,-0.0504,-0.0497,-0.0508,-0.0517,-0.0412,-0.0411,-0.041,-0.0409,0,-0.0269,-0.03,-0.0326,-0.0369,-0.0442,-0.0487,-0.0592,-0.0591,-0.0687,-0.0766,-0.0665,-0.0614,-0.05,-0.0425,-0.0375,-0.0338,-0.0494,-0.0429,-0.0437,-0.049,-0.048,-0.0479,-0.0492,-0.0397,-0.0399,-0.04,-0.04,0,-0.0254,-0.0251,-0.0279,-0.0321,-0.0354,-0.034,-0.0418,-0.044,-0.0477,-0.0544,-0.0496,-0.0444,-0.0458,-0.0348,-0.0301,-0.0253,-0.0248,-0.0283,-0.0299,-0.0313,-0.0322,-0.0294,-0.0114,0,0,0,0,0,-0.024,-0.0221,-0.0228,-0.0239,-0.025,-0.0274,-0.0327,-0.0397,-0.0502,-0.0398,-0.046,-0.0349,-0.0263,-0.0227,-0.0142,-0.0221,-0.0239,-0.0127,-0.0286,-0.0328,-0.0343,-0.0367,0,0,0,0,0,0,-0.0226,-0.0221,-0.0205,-0.0156,-0.0139,-0.0145,-0.0161,-0.0226,-0.0184,-0.0286,-0.0203,-0.0332,-0.0205,-0.0279,-0.0129,-0.0128,-0.0222,-0.0134,-0.0133,-0.032,-0.0333,-0.0345,-0.0374,0,0,0,0,0]},{"header":{"parameterUnit":"m.s-1","parameterCategory":2,"la1":30.2991,"la2":30.254,"lo1":-89.0895,"lo2":-89.0444,"dy":0.0017,"dx":0.0017,"nx":28,"ny":28,"refTime":"2024-07-14T03:00:00:Z","depth":"4","parameterNumber":3,"parameterNumberName":"V-component_of_CURRENTS"},"data":[0,0,0,0,0,0,0,0,0,0,0,0,0,0,0,0,0,0,0,0,0,0,0,0,0,0,0,0,0,0,0,0,0,0,0,0,0,0,0,0,0,0,0,0,0,0,0,0,0,0,0,0,0,0,0,0,0,0,-0.0002,-0.0002,0,0.0003,0.0003,0.0003,0.0013,0.0013,0.0013,0.0014,0.0009,0.0009,0.0008,0,0,0,0,0,0,0,0,0,0,0,0,0,-0.0029,-0.0029,-0.0003,-0.0002,-0.0002,0.0003,0.0003,0.0003,0.0013,0.0013,0.0014,0.0014,0.0009,0.0009,0.0008,0,0,0,0,0,0,0,0,0,0,0,0,0,-0.0022,-0.0029,-0.0003,0.0005,0.0006,0.0003,0.0003,0.0003,0.0012,0.0013,0.0014,0.0014,0.001,0.0009,0.0008,-0.0009,0,0,0.0006,0.0005,0,0,0,0,0,0,0,0,-0.0023,-0.0021,0.0004,0.0005,0.0006,0.001,-0.0008,-0.0001,0.0012,0.0007,0.0014,0.0015,0.001,0.0009,0.0005,-0.0009,-0.0009,0.0006,0.0005,0.0005,0.0005,0,0,0,0,0,0,0,-0.0023,-0.0022,-0.0003,0.0004,0.0005,0.0001,0.0002,-0.0007,0.0003,0.0008,0.0009,0.0014,0.001,0.0006,0.0005,-0.0009,0.0006,0.0005,0.0005,0.0004,-0.0042,-0.0043,0,0,0,0,0,0,-0.0018,-0.0022,-0.0003,-0.0002,-0.0004,0.0001,0.0003,0.0006,0.0003,0.0004,0.0013,0.0014,0.0007,0.0006,0.0005,-0.0011,0.0005,0.0004,0.0004,-0.0041,-0.0042,-0.0043,0,0,0,0,0,0,-0.0019,-0.0016,-0.0003,-0.001,-0.0008,0.0001,0.0005,0.0006,0.0004,0.0008,0.0008,0.0011,0.0007,0.0006,-0.0014,-0.0011,0.0004,0.0003,-0.004,-0.0042,-0.0043,-0.0047,0,0,0,0,0,0,-0.002,-0.0017,-0.0018,-0.001,-0.0008,-0.0004,0.0004,0.0006,0.0007,0.0008,0.0006,0.0006,0.0008,-0.0013,-0.0015,-0.0012,0.0003,-0.0039,-0.0041,-0.0042,-0.0046,-0.0048,-0.005,0,0,0,0,0,-0.0021,-0.002,-0.0018,-0.0016,-0.0007,-0.0004,-0.0004,0.0003,0.0006,0.0003,-0.0007,0.0006,-0.0023,-0.0015,-0.0016,-0.0014,-0.0039,-0.0041,-0.0042,-0.0045,-0.0047,-0.005,0,0,0,0,0,0,-0.0032,-0.0018,-0.0016,-0.0011,-0.0008,-0.0001,-0.0001,0.0001,-0.001,-0.0012,-0.001,-0.0012,-0.0027,-0.0027,-0.0018,-0.0034,-0.0026,-0.0028,-0.0027,-0.003,-0.0032,-0.0027,0.0002,0,0,0,0,0,-0.0035,-0.0031,-0.0021,-0.0019,-0.0015,-0.0011,-0.001,-0.0008,-0.0012,-0.0015,-0.0022,-0.0029,-0.0037,-0.0039,-0.0049,-0.0061,-0.005,-0.006,-0.0062,-0.0064,-0.0063,-0.0049,-0.0049,-0.0049,-0.0049,-0.0049,0,0,-0.0042,-0.0031,-0.0031,-0.0021,-0.0017,-0.0028,-0.0009,-0.0009,-0.0028,-0.0016,-0.0046,-0.0041,-0.0045,-0.0058,-0.0063,-0.0055,-0.006,-0.0066,-0.0067,-0.0065,-0.0051,-0.005,-0.005,-0.005,-0.005,-0.005,0,0,-0.0052,-0.004,-0.0043,-0.0044,-0.0037,-0.0037,-0.0038,-0.0038,-0.0045,-0.007,-0.0065,-0.0066,-0.0082,-0.0081,-0.0081,-0.0105,-0.0075,-0.0099,-0.0099,-0.0086,-0.0085,-0.0084,-0.0071,-0.0069,-0.0094,-0.0094,-0.0094,0,-0.0061,-0.0063,-0.0045,-0.0051,-0.006,-0.0044,-0.0064,-0.007,-0.0083,-0.0095,-0.0082,-0.0097,-0.0095,-0.0104,-0.0101,-0.0108,-0.009,-0.0085,-0.0086,-0.0085,-0.0085,-0.0071,-0.0069,-0.0095,-0.0094,-0.0094,-0.0094,0,-0.0076,-0.0084,-0.0084,-0.0092,-0.0101,-0.011,-0.0117,-0.0132,-0.0136,-0.014,-0.015,-0.0139,-0.0138,-0.0133,-0.012,-0.011,-0.0096,-0.0093,-0.0074,-0.0084,-0.007,-0.0068,-0.0095,-0.0095,-0.0095,-0.0095,0,0,-0.0086,-0.0094,-0.0098,-0.0117,-0.0126,-0.0138,-0.0168,-0.019,-0.021,-0.0204,-0.0219,-0.0208,-0.0174,-0.0172,-0.0145,-0.0124,-0.0097,-0.0093,-0.0092,-0.0071,-0.0055,-0.0114,-0.0117,-0.008,-0.0079,-0.0079,-0.0047,0,-0.0107,-0.0128,-0.0134,-0.0178,-0.0194,-0.0205,-0.0237,-0.0257,-0.0259,-0.027,-0.0241,-0.0233,-0.0196,-0.017,-0.0147,-0.011,-0.0089,-0.0105,-0.0057,-0.0056,-0.0099,-0.0116,-0.0078,-0.0046,-0.0045,-0.0045,-0.0044,0,-0.0124,-0.0137,-0.0176,-0.0224,-0.0235,-0.0269,-0.0313,-0.0333,-0.0339,-0.033,-0.0302,-0.0269,-0.0226,-0.0191,-0.0128,-0.0131,-0.009,-0.0063,-0.0061,-0.0113,-0.0111,-0.0035,-0.004,-0.004,-0.004,-0.0041,-0.0041,0,-0.0133,-0.0175,-0.0209,-0.0224,-0.0269,-0.0307,-0.0333,-0.0355,-0.0367,-0.0344,-0.0331,-0.0288,-0.0244,-0.0194,-0.0127,-0.0112,-0.0069,-0.005,-0.0071,-0.0075,-0.0026,-0.0027,-0.0014,-0.0014,-0.0014,-0.0015,-0.0015,0,-0.0149,-0.0182,-0.0221,-0.024,-0.0304,-0.0325,-0.0379,-0.0389,-0.039,-0.0395,-0.0341,-0.0327,-0.0234,-0.0198,-0.0143,-0.0108,-0.0081,-0.0077,-0.0075,-0.003,-0.0032,-0.0024,-0.0025,-0.0013,-0.0014,-0.0014,-0.0014,0,-0.0156,-0.0173,-0.022,-0.0278,-0.0306,-0.0346,-0.0404,-0.0429,-0.0412,-0.041,-0.0388,-0.0339,-0.0287,-0.0226,-0.0151,-0.0132,-0.0096,-0.0092,-0.0057,-0.0051,-0.0101,-0.0103,-0.0105,-0.0107,-0.0108,-0.011,-0.0111,0,-0.0162,-0.0179,-0.0244,-0.0278,-0.0314,-0.0374,-0.0416,-0.0433,-0.0442,-0.0426,-0.0419,-0.0371,-0.0335,-0.0261,-0.022,-0.0149,-0.0138,-0.012,-0.01,-0.0115,-0.0112,-0.0111,-0.0111,-0.0113,-0.0114,-0.0114,-0.0115,0,-0.0178,-0.0195,-0.0228,-0.0284,-0.0344,-0.0404,-0.0455,-0.0451,-0.0454,-0.0457,-0.041,-0.0373,-0.0336,-0.0275,-0.0228,-0.0182,-0.0135,-0.0137,-0.0132,-0.0112,-0.0125,-0.0121,-0.0119,-0.012,-0.0119,-0.0119,-0.0118,0,-0.0193,-0.0213,-0.0243,-0.0294,-0.0357,-0.0399,-0.0434,-0.0443,-0.0446,-0.0409,-0.0414,-0.0363,-0.0339,-0.0297,-0.0268,-0.0224,-0.0203,-0.0175,-0.0167,-0.0161,-0.0199,-0.0225,-0.0254,0,0,0,0,0,-0.0212,-0.0221,-0.0257,-0.0303,-0.0353,-0.039,-0.0443,-0.0463,-0.0468,-0.0423,-0.0402,-0.0364,-0.0314,-0.0309,-0.0266,-0.0315,-0.0216,-0.0271,-0.0183,-0.0151,-0.0145,-0.0187,0,0,0,0,0,0,-0.023,-0.0253,-0.0247,-0.0285,-0.0312,-0.0374,-0.0401,-0.0413,-0.0382,-0.0377,-0.0339,-0.0357,-0.0301,-0.0307,-0.0255,-0.0256,-0.0199,-0.0259,-0.0259,-0.0155,-0.0149,-0.0144,-0.0185,0,0,0,0,0]}]]